| time (UTC) | temp F | wind direction | speed MPH | gust MPH | rain 1hr in | rain 24hr in | rain mn in | humidity % | barometer mb |
| 20260902232544 | 69 | 251 | 1.0 | 3.0 | 0.00 | 0.20 | 0.20 | 96 | |
| 20260902232038 | 69 | 235 | 0.0 | 3.0 | 0.00 | 0.20 | 0.20 | 96 | |
| 20260902231533 | 69 | 199 | 1.0 | 4.0 | 0.00 | 0.20 | 0.20 | 96 | |
| 20260902231032 | 69 | 306 | 0.0 | 4.0 | 0.00 | 0.20 | 0.20 | 96 | |
| 20260902230527 | 69 | 227 | 3.0 | 4.0 | 0.00 | 0.20 | 0.20 | 96 | |
| 20260902230027 | 69 | 175 | 1.0 | 4.0 | 0.00 | 0.20 | 0.20 | 96 | |
| 20260902225522 | 69 | 76 | 0.0 | 4.0 | 0.00 | 0.20 | 0.20 | 96 | |
| 20260902225021 | 69 | 171 | 3.0 | 4.0 | 0.00 | 0.20 | 0.20 | 96 | |
| 20260902224520 | 70 | 147 | 2.0 | 5.0 | 0.00 | 0.20 | 0.20 | 96 | |
| 20260902224017 | 70 | 252 | 2.0 | 6.0 | 0.00 | 0.20 | 0.20 | 96 | |
| 20260902223512 | 70 | 128 | 4.0 | 5.0 | 0.00 | 0.20 | 0.20 | 96 | |
| 20260902223006 | 70 | 191 | 0.0 | 6.0 | 0.00 | 0.20 | 0.20 | 96 | |
| 20260902222505 | 70 | 222 | 2.0 | 7.0 | 0.00 | 0.20 | 0.20 | 96 | |
| 20260902222004 | 70 | 224 | 0.0 | 5.0 | 0.00 | 0.20 | 0.20 | 96 | |
| 20260902221503 | 70 | 201 | 3.0 | 5.0 | 0.00 | 0.20 | 0.20 | 96 | |
| 20260902220954 | 70 | 235 | 1.0 | 6.0 | 0.00 | 0.20 | 0.20 | 96 | |
| 20260902220454 | 70 | 256 | 3.0 | 5.0 | 0.00 | 0.20 | 0.20 | 96 | |
| 20260902215948 | 70 | 155 | 1.0 | 3.0 | 0.00 | 0.20 | 0.20 | 96 | |
| 20260902215444 | 70 | 231 | 2.0 | 4.0 | 0.00 | 0.20 | 0.20 | 96 | |
| 20260902214940 | 70 | 209 | 3.0 | 5.0 | 0.00 | 0.20 | 0.20 | 96 | |
| 20260902214438 | 70 | 104 | 3.0 | 6.0 | 0.00 | 0.20 | 0.20 | 96 | |
| 20260902213933 | 70 | 125 | 2.0 | 5.0 | 0.00 | 0.20 | 0.20 | 96 | |
| 20260902213429 | 70 | 103 | 3.0 | 4.0 | 0.00 | 0.20 | 0.20 | 96 | |
| 20260902212928 | 70 | 118 | 1.0 | 3.0 | 0.00 | 0.20 | 0.20 | 96 | |
| 20260902212424 | 70 | 191 | 1.0 | 3.0 | 0.00 | 0.20 | 0.20 | 96 | |
| 20260902211920 | 70 | 230 | 0.0 | 2.0 | 0.00 | 0.20 | 0.20 | 96 | |
| 20260902211416 | 70 | 171 | 1.0 | 3.0 | 0.00 | 0.20 | 0.20 | 96 | |
| 20260902210911 | 70 | 224 | 2.0 | 3.0 | 0.00 | 0.20 | 0.20 | 96 | |
| 20260902210410 | 70 | 304 | 2.0 | 5.0 | 0.00 | 0.20 | 0.20 | 96 | |
| 20260902205909 | 70 | 189 | 0.0 | 5.0 | 0.00 | 0.20 | 0.20 | 96 | |
| 20260902205404 | 70 | 289 | 2.0 | 3.0 | 0.00 | 0.20 | 0.20 | 96 | |
| 20260902204900 | 70 | 213 | 2.0 | 4.0 | 0.00 | 0.20 | 0.20 | 96 | |
| 20260902204359 | 70 | 169 | 1.0 | 6.0 | 0.00 | 0.20 | 0.20 | 96 | |
| 20260902203855 | 70 | 202 | 3.0 | 8.0 | 0.00 | 0.20 | 0.20 | 96 | |
| 20260902203350 | 70 | 246 | 1.0 | 4.0 | 0.00 | 0.20 | 0.20 | 96 | |
| 20260902202844 | 70 | 110 | 0.0 | 4.0 | 0.00 | 0.20 | 0.20 | 96 | |
| 20260902202340 | 70 | 229 | 0.0 | 3.0 | 0.00 | 0.20 | 0.20 | 96 | |
| 20260902201837 | 69 | 162 | 1.0 | 3.0 | 0.00 | 0.20 | 0.20 | 96 | |
| 20260902201336 | 69 | 225 | 0.0 | 4.0 | 0.00 | 0.20 | 0.20 | 96 | |
| 20260902200832 | 69 | 237 | 2.0 | 5.0 | 0.00 | 0.20 | 0.20 | 96 | |
| 20260902200326 | 69 | 336 | 0.0 | 9.0 | 0.00 | 0.20 | 0.20 | 96 | |
| 20260902195822 | 69 | 169 | 2.0 | 5.0 | 0.00 | 0.20 | 0.20 | 96 | |
| 20260902195321 | 69 | 251 | 2.0 | 3.0 | 0.00 | 0.20 | 0.20 | 96 | |
| 20260902194816 | 69 | 80 | 0.0 | 6.0 | 0.00 | 0.20 | 0.20 | 96 | |
| 20260902194311 | 69 | 160 | 1.0 | 3.0 | 0.00 | 0.20 | 0.20 | 96 | |
| 20260902193807 | 69 | 333 | 0.0 | 2.0 | 0.00 | 0.20 | 0.20 | 96 | |
| 20260902193302 | 69 | 222 | 3.0 | 3.0 | 0.00 | 0.20 | 0.20 | 96 | |
| 20260902192801 | 69 | 13 | 0.0 | 5.0 | 0.00 | 0.20 | 0.20 | 96 | |
| 20260902192300 | 69 | 221 | 2.0 | 6.0 | 0.00 | 0.20 | 0.20 | 96 | |
| 20260902191759 | 69 | 186 | 1.0 | 4.0 | 0.00 | 0.20 | 0.20 | 96 | |
| 20260902191255 | 69 | 216 | 0.0 | 4.0 | 0.00 | 0.20 | 0.20 | 96 | |
| 20260902190750 | 69 | 149 | 0.0 | 5.0 | 0.00 | 0.20 | 0.20 | 96 | |
| 20260902190249 | 68 | 139 | 0.0 | 5.0 | 0.00 | 0.20 | 0.20 | 96 | |
| 20260902185745 | 68 | 259 | 0.0 | 3.0 | 0.00 | 0.20 | 0.20 | 96 | |
| 20260902185241 | 68 | 141 | 2.0 | 3.0 | 0.00 | 0.20 | 0.20 | 96 | |
| 20260902184737 | 68 | 260 | 2.0 | 3.0 | 0.00 | 0.20 | 0.20 | 96 | |
| 20260902184232 | 68 | 119 | 1.0 | 4.0 | 0.00 | 0.20 | 0.20 | 96 | |
| 20260902183727 | 68 | 288 | 3.0 | 3.0 | 0.00 | 0.20 | 0.20 | 96 | |
| 20260902183224 | 68 | 144 | 3.0 | 7.0 | 0.00 | 0.20 | 0.20 | 96 | |
| 20260902182720 | 68 | 241 | 0.0 | 3.0 | 0.00 | 0.20 | 0.20 | 96 | |
| 20260902182216 | 68 | 0 | 0.0 | 4.0 | 0.00 | 0.20 | 0.20 | 96 | |
| 20260902181712 | 68 | 234 | 2.0 | 5.0 | 0.00 | 0.20 | 0.20 | 96 | |
| 20260902181211 | 68 | 219 | 2.0 | 5.0 | 0.00 | 0.20 | 0.20 | 96 | |
| 20260902180706 | 68 | 164 | 4.0 | 9.0 | 0.00 | 0.20 | 0.20 | 96 | |
| 20260902180201 | 68 | 352 | 0.0 | 8.0 | 0.00 | 0.20 | 0.20 | 96 | |
| 20260902175702 | 68 | 244 | 0.0 | 4.0 | 0.00 | 0.20 | 0.20 | 96 | |
| 20260902175158 | 68 | 314 | 2.0 | 3.0 | 0.00 | 0.20 | 0.20 | 96 | |
| 20260902174654 | 67 | 269 | 0.0 | 5.0 | 0.00 | 0.20 | 0.20 | 96 | |
| 20260902174149 | 67 | 236 | 2.0 | 7.0 | 0.00 | 0.20 | 0.20 | 96 | |
| 20260902173644 | 67 | 101 | 2.0 | 7.0 | 0.00 | 0.20 | 0.20 | 96 | |
| 20260902173139 | 67 | 228 | 3.0 | 6.0 | 0.00 | 0.20 | 0.20 | 96 | |
| 20260902172633 | 67 | 227 | 1.0 | 4.0 | 0.00 | 0.20 | 0.20 | 96 | |
| 20260902172132 | 67 | 205 | 1.0 | 9.0 | 0.00 | 0.20 | 0.20 | 96 | |
| 20260902171628 | 67 | 295 | 2.0 | 4.0 | 0.00 | 0.20 | 0.20 | 96 | |
| 20260902171124 | 68 | 202 | 1.0 | 5.0 | 0.00 | 0.20 | 0.20 | 96 | |
| 20260902170620 | 67 | 209 | 2.0 | 5.0 | 0.00 | 0.20 | 0.20 | 96 | |
| 20260902170115 | 68 | 24 | 3.0 | 8.0 | 0.00 | 0.20 | 0.20 | 96 | |
| 20260902165614 | 68 | 352 | 1.0 | 5.0 | 0.00 | 0.20 | 0.20 | 96 | |
| 20260902165109 | 68 | 282 | 2.0 | 5.0 | 0.00 | 0.20 | 0.20 | 96 | |
| 20260902164605 | 68 | 176 | 2.0 | 3.0 | 0.00 | 0.20 | 0.20 | 96 | |
| 20260902164103 | 68 | 187 | 2.0 | 5.0 | 0.00 | 0.20 | 0.20 | 96 | |
| 20260902163559 | 68 | 237 | 0.0 | 3.0 | 0.00 | 0.20 | 0.20 | 96 | |
| 20260902163057 | 68 | 269 | 0.0 | 2.0 | 0.00 | 0.20 | 0.20 | 96 | |
| 20260902162551 | 69 | 89 | 0.0 | 5.0 | 0.00 | 0.20 | 0.20 | 96 | |
| 20260902162047 | 69 | 269 | 0.0 | 3.0 | 0.00 | 0.20 | 0.20 | 96 | |
| 20260902161547 | 69 | 322 | 0.0 | 3.0 | 0.00 | 0.20 | 0.20 | 96 | |
| 20260902161043 | 69 | 151 | 0.0 | 2.0 | 0.00 | 0.20 | 0.20 | 96 | |
| 20260902160538 | 69 | 219 | 0.0 | 2.0 | 0.00 | 0.20 | 0.20 | 96 | |
| 20260902160033 | 69 | 84 | 0.0 | 3.0 | 0.00 | 0.20 | 0.20 | 96 | |
| 20260902155527 | 69 | 197 | 3.0 | 4.0 | 0.05 | 0.20 | 0.20 | 96 | |
| 20260902155026 | 69 | 153 | 1.0 | 3.0 | 0.07 | 0.20 | 0.20 | 96 | |
| 20260902154521 | 69 | 130 | 1.0 | 5.0 | 0.09 | 0.20 | 0.20 | 96 | |
| 20260902154016 | 69 | 221 | 1.0 | 4.0 | 0.07 | 0.19 | 0.19 | 96 | |
| 20260902153514 | 69 | 22 | 0.0 | 3.0 | 0.05 | 0.18 | 0.18 | 96 | |
| 20260902153010 | 69 | 89 | 0.0 | 3.0 | 0.05 | 0.18 | 0.18 | 96 | |
| 20260902152506 | 69 | 141 | 2.0 | 4.0 | 0.12 | 0.17 | 0.17 | 96 | |
| 20260902152001 | 69 | 129 | 0.0 | 6.0 | 0.09 | 0.17 | 0.17 | 96 | |
| 20260902151457 | 69 | 136 | 2.0 | 2.0 | 0.05 | 0.15 | 0.15 | 96 | |
| 20260902150956 | 69 | 250 | 2.0 | 3.0 | 0.07 | 0.15 | 0.15 | 96 | |
| 20260902150453 | 69 | 229 | 3.0 | 3.0 | 0.07 | 0.15 | 0.15 | 96 | |
| 20260902145952 | 69 | 137 | 1.0 | 3.0 | 0.02 | 0.14 | 0.14 | 96 | |
| 20260902145447 | 69 | 243 | 4.0 | 5.0 | 0.02 | 0.13 | 0.13 | 96 | |
| 20260902144942 | 69 | 216 | 3.0 | 3.0 | 0.02 | 0.13 | 0.13 | 96 | |
| 20260902144438 | 69 | 209 | 0.0 | 2.0 | 0.07 | 0.13 | 0.13 | 96 | |
| 20260902143938 | 69 | 234 | 0.0 | 3.0 | 0.31 | 0.13 | 0.13 | 96 | |
| 20260902143433 | 69 | 310 | 0.0 | 1.0 | 0.33 | 0.10 | 0.10 | 96 | |
| 20260902142928 | 69 | 124 | 0.0 | 2.0 | 0.26 | 0.07 | 0.07 | 96 | |
| 20260902142425 | 69 | 227 | 2.0 | 3.0 | 0.17 | 0.05 | 0.05 | 96 | |
| 20260902141920 | 69 | 235 | 2.0 | 3.0 | 0.14 | 0.03 | 0.03 | 96 | |
| 20260902141415 | 69 | 129 | 0.0 | 2.0 | 0.05 | 0.01 | 0.01 | 96 | |
| 20260902140914 | 69 | 246 | 2.0 | 3.0 | 0.00 | 0.00 | 0.00 | 96 | |
| 20260902140410 | 69 | 246 | 4.0 | 5.0 | 0.00 | 0.00 | 0.00 | 96 | |
| 20260902135904 | 69 | 196 | 1.0 | 5.0 | 0.00 | 0.00 | 0.00 | 96 | |
| 20260902135400 | 69 | 146 | 3.0 | 4.0 | 0.00 | 0.00 | 0.00 | 96 | |
| 20260902134858 | 69 | 234 | 1.0 | 3.0 | 0.00 | 0.00 | 0.00 | 96 | |
| 20260902134355 | 69 | 182 | 2.0 | 5.0 | 0.00 | 0.00 | 0.00 | 96 | |
| 20260902133854 | 70 | 179 | 2.0 | 4.0 | 0.00 | 0.00 | 0.00 | 96 | |
| 20260902133349 | 70 | 232 | 2.0 | 3.0 | 0.00 | 0.00 | 0.00 | 96 | |
| 20260902132844 | 70 | 208 | 2.0 | 5.0 | 0.00 | 0.00 | 0.00 | 96 | |
| 20260902132339 | 70 | 195 | 3.0 | 5.0 | 0.00 | 0.00 | 0.00 | 96 | |
| 20260902131835 | 70 | 260 | 3.0 | 5.0 | 0.00 | 0.00 | 0.00 | 96 | |
| 20260902131332 | 70 | 235 | 3.0 | 4.0 | 0.00 | 0.00 | 0.00 | 96 | |
| 20260902130830 | 70 | 245 | 1.0 | 3.0 | 0.00 | 0.00 | 0.00 | 96 | |
| 20260902130327 | 70 | 244 | 2.0 | 3.0 | 0.00 | 0.00 | 0.00 | 96 | |
| 20260902125821 | 70 | 198 | 1.0 | 3.0 | 0.00 | 0.00 | 0.00 | 96 | |
| 20260902125317 | 70 | 191 | 2.0 | 3.0 | 0.00 | 0.00 | 0.00 | 96 | |
| 20260902124813 | 70 | 200 | 0.0 | 3.0 | 0.00 | 0.00 | 0.00 | 96 | |
| 20260902124309 | 70 | 231 | 1.0 | 3.0 | 0.00 | 0.00 | 0.00 | 96 | |
| 20260902123804 | 69 | 157 | 2.0 | 3.0 | 0.00 | 0.00 | 0.00 | 96 | |
| 20260902123300 | 69 | 151 | 1.0 | 2.0 | 0.00 | 0.00 | 0.00 | 96 | |
| 20260902122759 | 69 | 209 | 1.0 | 2.0 | 0.00 | 0.00 | 0.00 | 96 | |
| 20260902122255 | 69 | 241 | 0.0 | 1.0 | 0.00 | 0.00 | 0.00 | 96 | |
| 20260902121754 | 69 | 136 | 1.0 | 3.0 | 0.00 | 0.00 | 0.00 | 96 | |
| 20260902121250 | 69 | 199 | 1.0 | 1.0 | 0.00 | 0.00 | 0.00 | 96 | |
| 20260902120745 | 69 | 129 | 0.0 | 1.0 | 0.00 | 0.00 | 0.00 | 96 | |
| 20260902120242 | 69 | 169 | 0.0 | 2.0 | 0.00 | 0.00 | 0.00 | 96 | |
| 20260902115742 | 69 | 243 | 2.0 | 3.0 | 0.00 | 0.00 | 0.00 | 96 | |
| 20260902115238 | 69 | 162 | 2.0 | 3.0 | 0.00 | 0.00 | 0.00 | 96 | |
| 20260902114734 | 69 | 150 | 1.0 | 2.0 | 0.00 | 0.00 | 0.00 | 96 | |
| 20260902114230 | 69 | 237 | 0.0 | 4.0 | 0.00 | 0.00 | 0.00 | 96 | |
| 20260902113724 | 68 | 201 | 2.0 | 5.0 | 0.00 | 0.00 | 0.00 | 96 | |
| 20260902113219 | 68 | 217 | 0.0 | 3.0 | 0.00 | 0.00 | 0.00 | 96 | |
| 20260902112718 | 68 | 147 | 0.0 | 1.0 | 0.00 | 0.00 | 0.00 | 96 | |
| 20260902112216 | 68 | 149 | 0.0 | 2.0 | 0.00 | 0.00 | 0.00 | 96 | |
| 20260902111711 | 68 | 251 | 0.0 | 2.0 | 0.00 | 0.00 | 0.00 | 96 | |
| 20260902111207 | 68 | 213 | 0.0 | 3.0 | 0.00 | 0.00 | 0.00 | 96 | |
| 20260902110702 | 67 | 235 | 0.0 | 2.0 | 0.00 | 0.00 | 0.00 | 96 | |
| 20260902110158 | 67 | 274 | 1.0 | 2.0 | 0.00 | 0.00 | 0.00 | 96 | |
| 20260902105658 | 68 | 204 | 0.0 | 2.0 | 0.00 | 0.00 | 0.00 | 96 | |
| 20260902105153 | 67 | 197 | 0.0 | 1.0 | 0.00 | 0.00 | 0.00 | 96 | |
| 20260902104648 | 67 | 150 | 0.0 | 0.0 | 0.00 | 0.00 | 0.00 | 96 | |
| 20260902104144 | 67 | 224 | 0.0 | 0.0 | 0.00 | 0.00 | 0.00 | 96 | |
| 20260902103643 | 67 | 202 | 0.0 | 1.0 | 0.00 | 0.00 | 0.00 | 96 | |
| 20260902103138 | 67 | 142 | 0.0 | 2.0 | 0.00 | 0.00 | 0.00 | 96 | |
| 20260902102635 | 67 | 129 | 0.0 | 0.0 | 0.00 | 0.00 | 0.00 | 96 | |
| 20260902102132 | 67 | 119 | 0.0 | 2.0 | 0.00 | 0.00 | 0.00 | 96 | |
| 20260902101627 | 67 | 22 | 0.0 | 1.0 | 0.00 | 0.00 | 0.00 | 96 | |
| 20260902101126 | 67 | 186 | 0.0 | 1.0 | 0.00 | 0.00 | 0.00 | 96 | |
| 20260902100621 | 68 | 269 | 0.0 | 1.0 | 0.00 | 0.00 | 0.00 | 96 | |
| 20260902100116 | 68 | 229 | 0.0 | 3.0 | 0.00 | 0.00 | 0.00 | 96 | |
| 20260902095615 | 68 | 231 | 1.0 | 2.0 | 0.00 | 0.00 | 0.00 | 96 | |
| 20260902095114 | 68 | 312 | 0.0 | 1.0 | 0.00 | 0.00 | 0.00 | 96 | |
| 20260902094610 | 68 | 134 | 0.0 | 1.0 | 0.00 | 0.00 | 0.00 | 96 | |
| 20260902094106 | 68 | 113 | 0.0 | 0.0 | 0.00 | 0.00 | 0.00 | 96 | |
| 20260902093606 | 68 | 217 | 0.0 | 3.0 | 0.00 | 0.00 | 0.00 | 96 | |
| 20260902093100 | 68 | 129 | 0.0 | 0.0 | 0.00 | 0.00 | 0.00 | 96 | |
| 20260902092555 | 68 | 129 | 0.0 | 0.0 | 0.00 | 0.00 | 0.00 | 96 | |
| 20260902092050 | 68 | 129 | 0.0 | 0.0 | 0.00 | 0.00 | 0.00 | 96 | |
| 20260902091545 | 68 | 217 | 0.0 | 0.0 | 0.00 | 0.00 | 0.00 | 96 | |
| 20260902091041 | 68 | 217 | 0.0 | 1.0 | 0.00 | 0.00 | 0.00 | 96 | |
| 20260902090537 | 68 | 142 | 0.0 | 0.0 | 0.00 | 0.00 | 0.00 | 96 | |
| 20260902090036 | 68 | 142 | 0.0 | 0.0 | 0.00 | 0.00 | 0.00 | 96 | |
| 20260902085530 | 68 | 230 | 0.0 | 0.0 | 0.00 | 0.00 | 0.00 | 96 | |
| 20260902085026 | 68 | 230 | 0.0 | 0.0 | 0.00 | 0.00 | 0.00 | 96 | |
| 20260902084522 | 68 | 193 | 1.0 | 1.0 | 0.00 | 0.00 | 0.00 | 96 | |
| 20260902084017 | 68 | 240 | 0.0 | 2.0 | 0.00 | 0.00 | 0.00 | 96 | |
| 20260902083513 | 68 | 120 | 0.0 | 1.0 | 0.00 | 0.00 | 0.00 | 96 | |
| 20260902083007 | 68 | 246 | 0.0 | 2.0 | 0.00 | 0.00 | 0.00 | 96 | |
| 20260902082503 | 68 | 184 | 0.0 | 2.0 | 0.00 | 0.00 | 0.00 | 96 | |
| 20260902081959 | 68 | 89 | 0.0 | 2.0 | 0.00 | 0.00 | 0.00 | 96 | |
| 20260902081455 | 68 | 204 | 0.0 | 2.0 | 0.00 | 0.00 | 0.00 | 96 | |
| 20260902080949 | 68 | 112 | 1.0 | 1.0 | 0.00 | 0.00 | 0.00 | 96 | |
| 20260902080446 | 68 | 129 | 0.0 | 1.0 | 0.00 | 0.00 | 0.00 | 96 | |
| 20260902075945 | 68 | 229 | 0.0 | 1.0 | 0.00 | 0.00 | 0.00 | 96 | |
| 20260902075441 | 68 | 212 | 0.0 | 2.0 | 0.00 | 0.00 | 0.00 | 96 | |
| 20260902074937 | 68 | 129 | 0.0 | 1.0 | 0.00 | 0.00 | 0.00 | 96 | |
| 20260902074432 | 68 | 114 | 0.0 | 2.0 | 0.00 | 0.00 | 0.00 | 96 | |
| 20260902073927 | 68 | 142 | 0.0 | 0.0 | 0.00 | 0.00 | 0.00 | 96 | |
| 20260902073423 | 68 | 142 | 0.0 | 2.0 | 0.00 | 0.00 | 0.00 | 96 | |
| 20260902072919 | 68 | 174 | 0.0 | 2.0 | 0.00 | 0.00 | 0.00 | 96 | |
| 20260902072414 | 68 | 142 | 0.0 | 2.0 | 0.00 | 0.00 | 0.00 | 96 | |
| 20260902071911 | 68 | 140 | 0.0 | 2.0 | 0.00 | 0.00 | 0.00 | 96 | |
| 20260902071410 | 68 | 222 | 1.0 | 2.0 | 0.00 | 0.00 | 0.00 | 96 | |
| 20260902070907 | 68 | 225 | 0.0 | 2.0 | 0.00 | 0.00 | 0.00 | 96 | |
| 20260902070402 | 68 | 129 | 0.0 | 0.0 | 0.00 | 0.00 | 0.00 | 96 | |
| 20260902065901 | 68 | 129 | 0.0 | 0.0 | 0.00 | 0.00 | 0.00 | 96 | |
| 20260902065356 | 68 | 129 | 0.0 | 0.0 | 0.00 | 0.00 | 0.00 | 96 | |
| 20260902064851 | 68 | 202 | 0.0 | 0.0 | 0.00 | 0.00 | 0.00 | 96 | |
| 20260902064347 | 68 | 202 | 0.0 | 0.0 | 0.00 | 0.00 | 0.00 | 96 | |
| 20260902063843 | 69 | 217 | 0.0 | 1.0 | 0.00 | 0.00 | 0.00 | 96 | |
| 20260902063343 | 68 | 216 | 0.0 | 1.0 | 0.00 | 0.00 | 0.00 | 96 | |
| 20260902062842 | 69 | 142 | 0.0 | 0.0 | 0.00 | 0.00 | 0.00 | 96 | |
| 20260902062337 | 69 | 142 | 0.0 | 0.0 | 0.00 | 0.00 | 0.00 | 96 | |
| 20260902061836 | 69 | 124 | 0.0 | 1.0 | 0.00 | 0.00 | 0.00 | 96 | |
| 20260902061332 | 69 | 136 | 0.0 | 1.0 | 0.00 | 0.00 | 0.00 | 96 | |
| 20260902060828 | 69 | 161 | 0.0 | 2.0 | 0.00 | 0.00 | 0.00 | 96 | |
| 20260902060324 | 69 | 209 | 0.0 | 0.0 | 0.00 | 0.00 | 0.00 | 96 | |
| 20260902055819 | 69 | 180 | 0.0 | 0.0 | 0.00 | 0.00 | 0.00 | 96 | |
| 20260902055316 | 69 | 235 | 0.0 | 1.0 | 0.00 | 0.00 | 0.00 | 96 | |
| 20260902054816 | 69 | 249 | 0.0 | 1.0 | 0.00 | 0.00 | 0.00 | 96 | |
| 20260902054311 | 69 | 209 | 0.0 | 1.0 | 0.00 | 0.00 | 0.00 | 96 | |
| 20260902053806 | 69 | 173 | 0.0 | 2.0 | 0.00 | 0.00 | 0.00 | 96 | |
| 20260902053301 | 69 | 134 | 0.0 | 1.0 | 0.00 | 0.00 | 0.00 | 96 | |
| 20260902052800 | 69 | 129 | 0.0 | 0.0 | 0.00 | 0.00 | 0.00 | 96 | |
| 20260902052255 | 69 | 89 | 0.0 | 0.0 | 0.02 | 0.00 | 0.00 | 96 | |
| 20260902051750 | 69 | 129 | 0.0 | 1.0 | 0.00 | 0.00 | 0.00 | 96 | |
| 20260902051249 | 69 | 217 | 0.0 | 0.0 | 0.00 | 0.00 | 0.00 | 96 | |
| 20260902050744 | 69 | 217 | 0.0 | 0.0 | 0.00 | 0.00 | 0.00 | 96 | |
| 20260902050240 | 69 | 202 | 0.0 | 1.0 | 0.00 | 0.00 | 0.00 | 96 | |
| 20260902045739 | 69 | 242 | 2.0 | 2.0 | 0.00 | 0.00 | 0.00 | 96 | |
| 20260902045236 | 69 | 235 | 0.0 | 2.0 | 0.00 | 0.00 | 0.00 | 96 | |
| 20260902044731 | 69 | 140 | 0.0 | 3.0 | 0.00 | 0.00 | 0.00 | 96 | |
| 20260902044226 | 69 | 202 | 0.0 | 2.0 | 0.00 | 0.00 | 0.00 | 96 | |
| 20260902043721 | 69 | 219 | 0.0 | 2.0 | 0.00 | 0.00 | 0.00 | 96 | |
| 20260902043217 | 68 | 193 | 0.0 | 1.0 | 0.00 | 0.00 | 0.00 | 96 | |
| 20260902042716 | 68 | 163 | 0.0 | 1.0 | 0.00 | 0.00 | 0.00 | 96 | |
| 20260902042211 | 68 | 342 | 1.0 | 2.0 | 0.00 | 0.00 | 0.00 | 96 | |
| 20260902041706 | 69 | 229 | 0.0 | 2.0 | 0.00 | 0.00 | 0.00 | 96 | |
| 20260902041201 | 68 | 135 | 0.0 | 2.0 | 0.00 | 0.00 | 0.00 | 96 | |
| 20260902040700 | 68 | 326 | 0.0 | 1.0 | 0.00 | 0.00 | 0.00 | 96 | |
| 20260902040156 | 69 | 255 | 2.0 | 3.0 | 0.00 | 1.02 | 1.02 | 96 | |
| 20260902035654 | 68 | 142 | 0.0 | 1.0 | 0.00 | 1.02 | 1.02 | 96 | |
| 20260902035150 | 68 | 147 | 0.0 | 1.0 | 0.00 | 1.02 | 1.02 | 96 | |
| 20260902034649 | 68 | 160 | 0.0 | 1.0 | 0.00 | 1.02 | 1.02 | 96 | |
| 20260902034148 | 68 | 93 | 0.0 | 1.0 | 0.00 | 1.02 | 1.02 | 96 | |
| 20260902033647 | 68 | 114 | 0.0 | 2.0 | 0.00 | 1.02 | 1.02 | 96 | |
| 20260902033142 | 68 | 212 | 0.0 | 1.0 | 0.00 | 1.02 | 1.02 | 96 | |
| 20260902032641 | 69 | 141 | 0.0 | 1.0 | 0.00 | 1.02 | 1.02 | 96 | |
| 20260902032136 | 68 | 113 | 0.0 | 1.0 | 0.00 | 1.02 | 1.02 | 96 | |
| 20260902031630 | 68 | 89 | 0.0 | 1.0 | 0.00 | 1.02 | 1.02 | 96 | |
| 20260902031126 | 68 | 124 | 0.0 | 0.0 | 0.00 | 1.02 | 1.02 | 96 | |
| 20260902030621 | 68 | 124 | 0.0 | 1.0 | 0.00 | 1.02 | 1.02 | 96 | |
| 20260902030121 | 68 | 352 | 0.0 | 0.0 | 0.00 | 1.02 | 1.02 | 96 | |
| 20260902025621 | 68 | 352 | 0.0 | 0.0 | 0.00 | 1.02 | 1.02 | 96 | |
| 20260902025116 | 68 | 352 | 0.0 | 0.0 | 0.00 | 1.02 | 1.02 | 96 | |
| 20260902024612 | 68 | 352 | 0.0 | 1.0 | 0.00 | 1.02 | 1.02 | 96 | |
| 20260902024106 | 68 | 353 | 0.0 | 0.0 | 0.00 | 1.02 | 1.02 | 96 | |
| 20260902023602 | 68 | 353 | 0.0 | 0.0 | 0.00 | 1.02 | 1.02 | 96 | |
| 20260902023056 | 69 | 129 | 0.0 | 0.0 | 0.00 | 1.02 | 1.02 | 96 | |
| 20260902022556 | 69 | 129 | 0.0 | 0.0 | 0.00 | 1.02 | 1.02 | 96 | |
| 20260902022052 | 69 | 129 | 0.0 | 0.0 | 0.00 | 1.02 | 1.02 | 96 | |
| 20260902021547 | 69 | 166 | 0.0 | 0.0 | 0.00 | 1.02 | 1.02 | 96 | |
| 20260902021042 | 69 | 166 | 0.0 | 0.0 | 0.00 | 1.02 | 1.02 | 96 | |
| 20260902020538 | 69 | 166 | 0.0 | 1.0 | 0.00 | 1.02 | 1.02 | 96 | |
| 20260902020034 | 69 | 129 | 0.0 | 0.0 | 0.00 | 1.02 | 1.02 | 96 | |
| 20260902015529 | 69 | 129 | 0.0 | 1.0 | 0.00 | 1.02 | 1.02 | 96 | |
| 20260902015025 | 69 | 345 | 0.0 | 0.0 | 0.00 | 1.02 | 1.02 | 96 | |
| 20260902014521 | 69 | 0 | 0.0 | 1.0 | 0.00 | 1.02 | 1.02 | 96 | |
| 20260902014016 | 69 | 0 | 0.0 | 0.0 | 0.00 | 1.02 | 1.02 | 96 | |
| 20260902013511 | 69 | 0 | 0.0 | 0.0 | 0.00 | 1.02 | 1.02 | 96 | |
| 20260902013006 | 70 | 0 | 0.0 | 1.0 | 0.00 | 1.02 | 1.02 | 96 | |
| 20260902012501 | 70 | 212 | 0.0 | 0.0 | 0.00 | 1.02 | 1.02 | 96 | |
| 20260902011957 | 70 | 212 | 0.0 | 0.0 | 0.00 | 1.02 | 1.02 | 96 | |
| 20260902011452 | 70 | 212 | 0.0 | 0.0 | 0.00 | 1.02 | 1.02 | 96 | |
| 20260902010951 | 70 | 212 | 0.0 | 0.0 | 0.00 | 1.02 | 1.02 | 96 | |
| 20260902010447 | 70 | 212 | 0.0 | 0.0 | 0.00 | 1.02 | 1.02 | 96 | |
| 20260902005946 | 70 | 212 | 0.0 | 1.0 | 0.00 | 1.02 | 1.02 | 96 | |
| 20260902005445 | 70 | 142 | 0.0 | 1.0 | 0.00 | 1.02 | 1.02 | 96 | |
| 20260902004942 | 70 | 0 | 0.0 | 1.0 | 0.00 | 1.02 | 1.02 | 96 | |
| 20260902004441 | 71 | 142 | 0.0 | 0.0 | 0.00 | 1.02 | 1.02 | 96 | |
| 20260902003936 | 71 | 164 | 0.0 | 0.0 | 0.00 | 1.02 | 1.02 | 96 | |
| 20260902003436 | 71 | 164 | 0.0 | 1.0 | 0.00 | 1.02 | 1.02 | 96 | |
| 20260902002932 | 71 | 15 | 0.0 | 0.0 | 0.00 | 1.02 | 1.02 | 96 | |
| 20260902002427 | 71 | 15 | 0.0 | 0.0 | 0.00 | 1.02 | 1.02 | 96 | |
| 20260902001926 | 71 | 15 | 0.0 | 0.0 | 0.00 | 1.02 | 1.02 | 96 | |
| 20260902001421 | 72 | 15 | 0.0 | 0.0 | 0.00 | 1.02 | 1.02 | 96 | |
| 20260902000917 | 72 | 15 | 0.0 | 0.0 | 0.00 | 1.02 | 1.02 | 96 | |
| 20260902000414 | 72 | 15 | 0.0 | 0.0 | 0.00 | 1.02 | 1.02 | 96 | |
| 20260901235906 | 72 | 129 | 0.0 | 0.0 | 0.00 | 1.02 | 1.02 | 96 | |
| 20260901235401 | 73 | 129 | 0.0 | 0.0 | 0.00 | 1.02 | 1.02 | 96 | |
| 20260901234856 | 73 | 129 | 0.0 | 0.0 | 0.00 | 1.02 | 1.02 | 96 | |
| 20260901234350 | 73 | 129 | 0.0 | 0.0 | 0.00 | 1.02 | 1.02 | 96 | 1015.2 |
| 20260901233845 | 73 | 129 | 0.0 | 0.0 | 0.00 | 1.02 | 1.02 | 96 | 1015.2 |
| 20260901233341 | 73 | 129 | 0.0 | 0.0 | 0.00 | 1.02 | 1.02 | 96 | 1015.2 |
| 20260901232836 | 73 | 166 | 0.0 | 1.0 | 0.00 | 1.02 | 1.02 | 95 | 1015.2 |